Location: Brachbach
(49.1847°N, 9.7240°E)
Time: 16:23:33
(UTC+00:00)

Nadezhda 1 Rocket - Pass Details

Date: 09 August 2024
Orbit: 941 x 1004 km, 83.0° (Epoch: 19 September)

Event Time Altitude Azimuth Distance (km) Brightness Sun altitude
Rises 02:46:57 0° 121° (ESE) 3,617 7.2 -11.5°
Reaches altitude 10° 02:51:50 10° 87° (E) 2,669 7.2 -10.8°
Maximum altitude 02:53:09 11° 74° (ENE) 2,614 7.4 -10.7°
Drops below altitude 10° 02:54:29 10° 61° (ENE) 2,669 7.8 -10.5°
Sets 02:59:21 0° 26° (NNE) 3,618 8.3 -9.9°
